New Cumberland, PA

12:08 AM EDT on September 30, 2016 (GMT -0400)
Capital City

Weather History for KCXY - October, 2013

Change the Weather History Date:

Saturday, October 26, 2013

  Actual Average Record
Temperature  
Mean Temperature 41 °F -  
Max Temperature 54 °F 58 °F 79 °F (1939)
Min Temperature 28 °F 40 °F 27 °F (1952)
Degree Days  
Heating Degree Days 24    
Moisture  
Dew Point 28 °F    
Average Humidity 57    
Maximum Humidity 92    
Minimum Humidity 34    
Precipitation  
Precipitation 0.00 in - - ()
Sea Level Pressure  
Sea Level Pressure 30.10 in    
Wind  
Wind Speed 7 mph (SW)    
Max Wind Speed 17 mph    
Max Gust Speed 25 mph    
Visibility 10 miles    
Events      
Averages and records for this station are not official NWS values.
T = Trace of Precipitation, MM = Missing Value Source: NWS Daily Summary

Daily Weather History Graph

Daily Weather History Graph

Search for Another Location

Airport or City:

Trip Planner

Search our weather history database for the weather conditions in past years. The results will help you decide how hot, cold, wet, or windy it might be!

Date:

Astronomy

Oct. 26, 2013 Rise Set
Actual Time 7:30 AM EDT 6:11 PM EDT
Civil Twilight 7:02 AM EDT 6:39 PM EDT
Nautical Twilight 6:30 AM EDT 7:11 PM EDT
Astronomical Twilight 5:59 AM EDT 7:42 PM EDT
Moon No Moon Rise 1:45 PM EDT (10/26)
Length of Visible Light 11h 37m
Length of Day
10h 41m
Waning Gibbous, 53% of the Moon is Illuminated
Oct 26
Waning Gibbous
Oct 26
Last Quarter
Nov 3
New
Nov 10
First Quarter
Nov 17
Full

Hourly Weather History & Observations

Time (EDT) Temp. Windchill Dew Point Humidity Pressure Visibility Wind Dir Wind Speed Gust Speed Precip Events Conditions
12:56 AM 37.0 °F 31.6 °F 28.9 °F 73% 30.29 in 10.0 mi WSW 6.9 mph - N/A   Clear
1:56 AM 37.0 °F 31.6 °F 28.9 °F 73% 30.28 in 10.0 mi West 6.9 mph - N/A   Clear
2:56 AM 35.1 °F 29.3 °F 28.9 °F 78% 30.28 in 10.0 mi West 6.9 mph - N/A   Clear
3:56 AM 33.1 °F 27.7 °F 28.0 °F 82% 30.26 in 10.0 mi WSW 5.8 mph - N/A   Clear
4:56 AM 30.9 °F 27.5 °F 28.0 °F 89% 30.25 in 10.0 mi West 3.5 mph - N/A   Clear
5:56 AM 32.0 °F - 28.0 °F 85% 30.24 in 10.0 mi Calm Calm - N/A   Clear
6:56 AM 30.0 °F - 27.0 °F 88% 30.23 in 10.0 mi Calm Calm - N/A   Clear
7:56 AM 28.9 °F 25.2 °F 27.0 °F 92% 30.23 in 10.0 mi WSW 3.5 mph - N/A   Clear
8:56 AM 36.0 °F - 30.9 °F 82% 30.23 in 10.0 mi Calm Calm - N/A   Clear
9:56 AM 43.0 °F 37.2 °F 30.0 °F 60% 30.20 in 10.0 mi SW 10.4 mph - N/A   Clear
10:56 AM 46.0 °F 42.5 °F 30.0 °F 54% 30.17 in 10.0 mi SW 6.9 mph - N/A   Clear
11:56 AM 50.0 °F - 28.0 °F 43% 30.14 in 10.0 mi SSW 17.3 mph 25.3 mph N/A   Partly Cloudy
12:56 PM 51.1 °F - 26.1 °F 38% 30.09 in 10.0 mi South 16.1 mph 23.0 mph N/A   Clear
1:56 PM 53.1 °F - 27.0 °F 37% 30.06 in 10.0 mi SSW 9.2 mph 19.6 mph N/A   Clear
2:56 PM 53.1 °F - 26.1 °F 35% 30.02 in 10.0 mi SW 9.2 mph 21.9 mph N/A   Clear
3:56 PM 54.0 °F - 26.1 °F 34% 30.00 in 10.0 mi SW 13.8 mph 20.7 mph N/A   Clear
4:56 PM 53.1 °F - 26.1 °F 35% 29.96 in 10.0 mi SSW 9.2 mph 19.6 mph N/A   Clear
5:56 PM 52.0 °F - 27.0 °F 38% 29.96 in 10.0 mi SSW 8.1 mph - N/A   Mostly Cloudy
6:56 PM 51.1 °F - 27.0 °F 39% 29.95 in 10.0 mi South 6.9 mph - N/A   Mostly Cloudy
7:56 PM 51.1 °F - 27.0 °F 39% 29.94 in 10.0 mi SSW 8.1 mph - N/A   Overcast
8:56 PM 51.1 °F - 27.0 °F 39% 29.94 in 10.0 mi Variable 6.9 mph 16.1 mph N/A   Overcast
9:56 PM 50.0 °F - 28.0 °F 43% 29.93 in 10.0 mi WSW 3.5 mph - N/A   Overcast
10:56 PM 50.0 °F - 28.9 °F 44% 29.93 in 10.0 mi WSW 3.5 mph - N/A   Overcast
11:56 PM 48.9 °F - 30.0 °F 48% 29.93 in 10.0 mi West 4.6 mph - N/A   Overcast